STARLINK-34853, 65892

Orbit data source: Space-Track

STARLINK-34853, 65892 is a payload satellite owned by SpaceX/Seattle (US) in LEO that was launched on Tue, 07 Oct 2025 UTC via an FALCON 9 launch vehicle from the Air Force Eastern Test Range (AFETR). Payload-class satellites include a variety of spacecraft equipped with specific instruments for various scientific and technological missions. These include communications satellites like Starlink; space stations such as the ISS; scientific satellites like the Hubble; Earth observation satellites from companies like Planet Labs, Umbra, and HawkEye 360; GPS; miniature CubeSats for education and research; and military/defense satellites.

Loading next visibility...
Identifier
65892, 2025-224L
Orbit
LEO
Country
Flag of USUS
Related business
Manufacturer
SpaceX/Seattle
Mission
Operational spacecraft
Bus & Motor
STARLINK V2MO, Unknown motor
Mass
575 kg wet, ~530 kg dry
Launch date (UTC)
2025-10-07 (2 months ago)
Launch vehicle
FALCON 9
Launch site
Air Force Eastern Test Range (AFETR)
Object type
Payload
Rocket body
Debris
Shape & HBR
Unknown shape, 17.7 m
Radar Cross Section
RCS unknown

Expand to show TLE details & history
Last TLE update: 15 hours ago

TLE from 15 hours ago
0 STARLINK-34853
1 65892U 25224L   25340.60695782  .00042775  00000-0  14464-2 0  9998
2 65892  53.1631  83.6577 0001058  69.2405 290.8709 15.30236298 10552
Epoch: 2025-12-06T14:34Z
TLE epoch observation values (Epoch: 2025-12-06T14:34:01.155Z)
Latitude
-0.00004°
Longitude
149.52059°
Altitude
475.749 km
Speed
7.629 km/s
True Right ascension
05h 34m 37s
True Declination
0° 00' 00"
Sunlit
Object was in full shadow at epoch
Visualization orbit readout
Latitude
Unknown
Longitude
Unknown
Altitude
Unknown
Speed
Unknown
Apparent Right ascension
Unknown
Apparent Declination
Unknown
Sunlit
N/A
Visualization observer readout
Local Sidereal Time
03:15:08
Azimuth
Unknown
Elevation
Unknown
Doppler factor
Unknown
Orbital elements
Apogee altitude
476.088 km
Perigee altitude
474.638 km
Semi-major axis
6,853.5 km
Eccentricity
0.00011
Inclination
53.1631°
RAAN
83.6577°
Arg. of periapsis
69.2405°
True anomaly
290.85957°
Mean anomaly
290.8709°
Eccentric anomaly
290.86524°
Mean motion
3.82538 °/min
Orbital period
94.11 mins
BSTAR
0.0014464
Loading maneuver chart data...
Computing Atmospheric mass density...
Loading historical data...
Loading historical data...
Loading historical data...
Loading historical data...
Loading historical data...
Loading historical data...
Loading historical data...

Documentation

Showing up to 5 results
|